STARLINK-32782, 62821

Orbit data source: Space-Track

STARLINK-32782, 62821 is a payload satellite owned by SpaceX/Seattle (US) in LEO that was launched on Fri, 24 Jan 2025 UTC via an FALCON 9 launch vehicle from the Air Force Western Test Range (AFWTR). Payload-class satellites include a variety of spacecraft equipped with specific instruments for various scientific and technological missions. These include communications satellites like Starlink; space stations such as the ISS; scientific satellites like the Hubble; Earth observation satellites from companies like Planet Labs, Umbra, and HawkEye 360; GPS; miniature CubeSats for education and research; and military/defense satellites.

Loading next visibility...
Identifier
62821, 2025-018R
Orbit
LEO
Country
Flag of USUS
Related business
Manufacturer
SpaceX/Seattle
Mission
Operational Commercial Communications
Bus & Motor
STARLINK V2M, Unknown motor
Mass
730 kg wet, ~700 kg dry
Launch date (UTC)
2025-01-24 (1 year ago)
Launch vehicle
FALCON 9
Launch site
Air Force Western Test Range (AFWTR)
Object type
Payload
Rocket body
Debris
Shape & HBR
Box + 2 Pan, 17.7 m
Radar Cross Section
33.884 m², Large (>1 m²)

Expand to show TLE details & history
Last TLE update: 23 hours ago

TLE from 23 hours ago
0 STARLINK-32782
1 62821U 25018R   26093.59690483  .00035362  00000-0  12025-2 0  9990
2 62821  53.1607 193.7716 0001120  71.8506 288.2616 15.30144083 66990
Epoch: 2026-04-03T14:19Z
TLE epoch observation values (Epoch: 2026-04-03T14:19:32.577Z)
Latitude
-0.00006°
Longitude
146.95706°
Altitude
476.041 km
Speed
7.629 km/s
True Right ascension
12h 55m 05s
True Declination
0° 00' 00"
Sunlit
Object was in full shadow at epoch
Visualization orbit readout
Latitude
Unknown
Longitude
Unknown
Altitude
Unknown
Speed
Unknown
Apparent Right ascension
Unknown
Apparent Declination
Unknown
Sunlit
N/A
Visualization observer readout
Local Sidereal Time
18:45:19
Azimuth
Unknown
Elevation
Unknown
Doppler factor
Unknown
Orbital elements
Apogee altitude
476.406 km
Perigee altitude
474.871 km
Semi-major axis
6,853.775 km
Eccentricity
0.00011
Inclination
53.1607°
RAAN
193.7716°
Arg. of periapsis
71.8506°
True anomaly
288.24941°
Mean anomaly
288.2616°
Eccentric anomaly
288.25551°
Mean motion
3.82515 °/min
Orbital period
94.11 mins
BSTAR
0.0012025
Loading maneuver chart data...
Computing Atmospheric mass density...
Loading historical data...
Loading historical data...
Loading historical data...
Loading historical data...
Loading historical data...
Loading historical data...
Loading historical data...

Documentation

Showing up to 5 results
|